Kilmarnock, Virginia, United States (22482)
Lat: 37.71N, Lon: 76.38W
Wx Zone: VAZ078
Local Info
Past Weather Observations for Sunday, March 29, 2015

NOTE: This archive is for the closest National Weather Service station to Kilmarnock. Information may differ from the station used for current weather conditions.

Click here for Long-term Archive

Time Weather Temperature Dewpoint Humidity Pressure Winds Precip Visibility
23:55
Partly Cloudy
43°F / 6°C 16°F / -9°C 34% 30.21 in
(1023 mb)
SSE 6.9 mph
(SSE 11 kph)
- 10SM
23:35
Clear
43°F / 6°C 16°F / -9°C 34% 30.21 in
(1023 mb)
S 6.9 mph
(S 11 kph)
- 10SM
23:15
Clear
41°F / 5°C 18°F / -8°C 39% 30.21 in
(1023 mb)
SSE 6.9 mph
(SSE 11 kph)
- 10SM
22:55
Clear
41°F / 5°C 18°F / -8°C 39% 30.21 in
(1023 mb)
SSE 6.9 mph
(SSE 11 kph)
- 10SM
22:35
Clear
41°F / 5°C 19°F / -7°C 42% 30.21 in
(1023 mb)
SSE 5.8 mph
(SSE 9 kph)
- 10SM
22:15
Clear
39°F / 4°C 19°F / -7°C 45% 30.24 in
(1024 mb)
SSE 4.6 mph
(SSE 7 kph)
- 10SM
21:55
Clear
39°F / 4°C 19°F / -7°C 45% 30.24 in
(1024 mb)
SSE 4.6 mph
(SSE 7 kph)
- 10SM
21:35
Clear
37°F / 3°C 21°F / -6°C 52% 30.24 in
(1024 mb)
SSE 5.8 mph
(SSE 9 kph)
- 10SM
21:15
Clear
34°F / 1°C 19°F / -7°C 56% 30.24 in
(1024 mb)
SE 3.5 mph
(SE 6 kph)
- 10SM
20:55
Clear
36°F / 2°C 19°F / -7°C 52% 30.24 in
(1024 mb)
Calm - 10SM
20:35
Clear
36°F / 2°C 21°F / -6°C 56% 30.24 in
(1024 mb)
SE 3.5 mph
(SE 6 kph)
- 10SM
20:15
Clear
37°F / 3°C 19°F / -7°C 48% 30.27 in
(1025 mb)
Calm - 10SM
19:55
Clear
37°F / 3°C 18°F / -8°C 45% 30.27 in
(1025 mb)
SE 3.5 mph
(SE 6 kph)
- 10SM
19:35
Clear
37°F / 3°C 16°F / -9°C 41% 30.27 in
(1025 mb)
Calm - 10SM
19:15
Clear
39°F / 4°C 16°F / -9°C 39% 30.27 in
(1025 mb)
Calm - 10SM
18:55
Clear
41°F / 5°C 14°F / -10°C 33% 30.27 in
(1025 mb)
Calm - 10SM
18:35
Clear
45°F / 7°C 1°F / -17°C 16% 30.27 in
(1025 mb)
SSE 4.6 mph
(SSE 7 kph)
- 10SM
18:15
Clear
46°F / 8°C 3°F / -16°C 17% 30.3 in
(1026 mb)
SW 5.8 mph
(SW 9 kph)
- 10SM
17:55
Clear
46°F / 8°C °F / -18°C 14% 30.3 in
(1026 mb)
Calm - 10SM
17:35
Clear
48°F / 9°C -2°F / -19°C 12% 30.3 in
(1026 mb)
SSW 3.5 mph
(SSW 6 kph)
- 10SM
17:15
Clear
48°F / 9°C -8°F / -22°C 9% 30.3 in
(1026 mb)
Calm - 10SM
16:55
Clear
48°F / 9°C -6°F / -21°C 10% 30.3 in
(1026 mb)
W 6.9 mph
(W 11 kph)
- 10SM
16:35
Clear
50°F / 10°C -8°F / -22°C 9% 30.3 in
(1026 mb)
W 4.6 mph
(W 7 kph)
- 10SM
16:15
Clear
48°F / 9°C -9°F / -23°C 8% 30.3 in
(1026 mb)
NW 8.1 mph
(NW 13 kph)
- 10SM
15:55
Clear
50°F / 10°C -6°F / -21°C 9% 30.3 in
(1026 mb)
SSW 5.8 mph
(SSW 9 kph)
- 10SM
15:35
Clear
48°F / 9°C -6°F / -21°C 10% 30.3 in
(1026 mb)
Calm - 10SM
15:15
Clear
48°F / 9°C -4°F / -20°C 11% 30.33 in
(1027 mb)
SSW 6.9 mph
(SSW 11 kph)
- 10SM
14:55
Clear
48°F / 9°C -2°F / -19°C 12% 30.33 in
(1027 mb)
W 3.5 mph
(W 6 kph)
- 10SM
14:35
Clear
46°F / 8°C -2°F / -19°C 13% 30.36 in
(1028 mb)
SW 5.8 mph
(SW 9 kph)
- 10SM
14:15
Clear
48°F / 9°C 1°F / -17°C 14% 30.36 in
(1028 mb)
SSW 9.2 mph
(SSW 15 kph)
- 10SM
13:55
Clear
46°F / 8°C 1°F / -17°C 15% 30.36 in
(1028 mb)
SSW 9.2 mph
(SSW 15 kph)
- 10SM
13:35
Clear
46°F / 8°C -2°F / -19°C 13% 30.36 in
(1028 mb)
SSW 6.9 mph
(SSW 11 kph)
- 10SM
13:15
Clear
45°F / 7°C -8°F / -22°C 11% 30.36 in
(1028 mb)
NNW 3.5 mph
(NNW 6 kph)
- 10SM
12:55
Clear
45°F / 7°C -2°F / -19°C 14% 30.39 in
(1029 mb)
W 10.4 mph
(W 17 kph)
- 10SM
12:35
Clear
45°F / 7°C -2°F / -19°C 14% 30.39 in
(1029 mb)
N 5.8 mph
(N 9 kph)
- 10SM
12:15
Clear
43°F / 6°C °F / -18°C 16% 30.39 in
(1029 mb)
SSW 8.1 mph
(SSW 13 kph)
- 10SM
11:55
Clear
45°F / 7°C °F / -18°C 15% 30.42 in
(1030 mb)
W 9.2 mph
(W 15 kph)
- 10SM
11:35
Clear
41°F / 5°C -2°F / -19°C 16% 30.42 in
(1030 mb)
WNW 8.1 mph
(WNW 13 kph)
- 10SM
11:15
Clear
41°F / 5°C -2°F / -19°C 16% 30.42 in
(1030 mb)
NW 9.2 mph
(NW 15 kph)
- 10SM
10:55
Clear
41°F / 5°C °F / -18°C 17% 30.42 in
(1030 mb)
NW 8.1 mph
(NW 13 kph)
- 10SM
10:35
Clear
39°F / 4°C °F / -18°C 18% 30.42 in
(1030 mb)
NNW 5.8 mph
(NNW 9 kph)
- 10SM
10:15
Clear
39°F / 4°C 1°F / -17°C 20% 30.42 in
(1030 mb)
WNW 6.9 mph
(WNW 11 kph)
- 10SM
09:55
Clear
37°F / 3°C 1°F / -17°C 22% 30.45 in
(1031 mb)
W 9.2 mph
(W 15 kph)
- 10SM
09:35
Clear
37°F / 3°C 1°F / -17°C 22% 30.42 in
(1030 mb)
NNW 9.2 mph
(NNW 15 kph)
- 10SM
09:15
Clear
36°F / 2°C 1°F / -17°C 23% 30.42 in
(1030 mb)
NW 6.9 mph
(NW 11 kph)
- 10SM
08:55
Clear
36°F / 2°C 3°F / -16°C 25% 30.42 in
(1030 mb)
NW 5.8 mph
(NW 9 kph)
- 10SM
08:35
Clear
34°F / 1°C 3°F / -16°C 27% 30.42 in
(1030 mb)
NW 9.2 mph
(NW 15 kph)
- 10SM
08:15
Clear
34°F / 1°C 5°F / -15°C 29% 30.42 in
(1030 mb)
NW 10.4 mph
(NW 17 kph)
- 10SM
07:55
Clear
32°F / 0°C 5°F / -15°C 32% 30.42 in
(1030 mb)
NNW 9.2 mph
(NNW 15 kph)
- 10SM
07:35
Clear
32°F / 0°C 7°F / -14°C 34% 30.42 in
(1030 mb)
NNW 8.1 mph
(NNW 13 kph)
- 10SM
07:15
Clear
30°F / -1°C 7°F / -14°C 37% 30.42 in
(1030 mb)
WNW 9.2 mph
(WNW 15 kph)
- 10SM
06:55
Clear
30°F / -1°C 7°F / -14°C 37% 30.42 in
(1030 mb)
NW 6.9 mph
(NW 11 kph)
- 10SM
06:35
Clear
28°F / -2°C 7°F / -14°C 40% 30.39 in
(1029 mb)
NW 4.6 mph
(NW 7 kph)
- 10SM
06:15
Clear
28°F / -2°C 7°F / -14°C 40% 30.39 in
(1029 mb)
NW 3.5 mph
(NW 6 kph)
- 10SM
05:55
Clear
28°F / -2°C 7°F / -14°C 40% 30.36 in
(1028 mb)
NW 5.8 mph
(NW 9 kph)
- 10SM
05:35
Clear
28°F / -2°C 7°F / -14°C 40% 30.36 in
(1028 mb)
NW 4.6 mph
(NW 7 kph)
- 10SM
05:15
Clear
28°F / -2°C 7°F / -14°C 40% 30.36 in
(1028 mb)
NW 6.9 mph
(NW 11 kph)
- 10SM
04:55
Clear
30°F / -1°C 7°F / -14°C 37% 30.36 in
(1028 mb)
NW 6.9 mph
(NW 11 kph)
- 10SM
04:35
Clear
30°F / -1°C 7°F / -14°C 37% 30.33 in
(1027 mb)
NW 5.8 mph
(NW 9 kph)
- 10SM
04:15
Clear
30°F / -1°C 9°F / -13°C 40% 30.33 in
(1027 mb)
NNW 8.1 mph
(NNW 13 kph)
- 10SM
03:55
Clear
30°F / -1°C 9°F / -13°C 40% 30.33 in
(1027 mb)
NNW 6.9 mph
(NNW 11 kph)
- 10SM
03:35
Clear
30°F / -1°C 9°F / -13°C 40% 30.33 in
(1027 mb)
NNW 8.1 mph
(NNW 13 kph)
- 10SM
03:15
Clear
30°F / -1°C 7°F / -14°C 37% 30.33 in
(1027 mb)
NW 5.8 mph
(NW 9 kph)
- 10SM
02:55
Clear
30°F / -1°C 7°F / -14°C 37% 30.3 in
(1026 mb)
NW 5.8 mph
(NW 9 kph)
- 10SM
02:35
Clear
30°F / -1°C 7°F / -14°C 37% 30.3 in
(1026 mb)
NW 6.9 mph
(NW 11 kph)
- 10SM
02:15
Clear
30°F / -1°C 7°F / -14°C 37% 30.3 in
(1026 mb)
NW 4.6 mph
(NW 7 kph)
- 10SM
01:55
Clear
30°F / -1°C 7°F / -14°C 37% 30.3 in
(1026 mb)
NW 6.9 mph
(NW 11 kph)
- 10SM
01:35
Clear
32°F / 0°C 7°F / -14°C 34% 30.3 in
(1026 mb)
NW 6.9 mph
(NW 11 kph)
- 10SM
01:15
Clear
32°F / 0°C 7°F / -14°C 34% 30.3 in
(1026 mb)
NW 6.9 mph
(NW 11 kph)
- 10SM
00:55
Clear
32°F / 0°C 9°F / -13°C 37% 30.3 in
(1026 mb)
NW 6.9 mph
(NW 11 kph)
- 10SM
00:35
Clear
32°F / 0°C 10°F / -12°C 40% 30.3 in
(1026 mb)
NW 4.6 mph
(NW 7 kph)
- 10SM
00:15
Clear
32°F / 0°C 9°F / -13°C 37% 30.3 in
(1026 mb)
NW 4.6 mph
(NW 7 kph)
- 10SM
Time Weather Temperature Dewpoint Humidity Pressure Winds Precip Visibility


Weather for websites

WeatherForYou.com, LLC is not responsible for any damages or problems caused by this service. Current weather conditions are obtained from the closest station including government and personal stations which may have varying degrees of accuracy. Weather forecasts are derived from the NOAA NDFD. Like all things, this site belongs to Jesus Christ... He just trusts me to maintain it. If you have any questions or comments email webmaster@weatherforyou.com

Copyright © 2015, WeatherForYou.com LLC. All rights reserved.